Location: Ar Ranvel
(48.3000°N, 4.8833°W)
Time: 19:01:55
(UTC+00:00)

N. Korean satellite - Pass Details

Date: 26 September 2021
Orbit: 450 x 495 km, 97.3° (Epoch: 25 October)

Event Time Altitude Azimuth Distance (km) Brightness Sun altitude
Rises 04:37:05 0° 30° (NNE) 2,531 11.0 -16.4°
Reaches altitude 10° 04:39:53 10° 55° (NE) 1,657 10.4 -15.9°
Maximum altitude 04:41:57 15° 91° (E) 1,391 10.0 -15.6°
Drops below altitude 10° 04:44:02 10° 127° (SE) 1,663 9.8 -15.3°
Sets 04:46:51 0° 152° (SSE) 2,546 10.4 -14.8°
